User: anonymous   Login
Location: SAPM � Hemmingford
(45.0500°N, 73.5833°W)
Time: 06:49:57
(UTC-04:00)
Language:

Cosmos 1674 Rocket - Orbit

View from above orbital plane
View from above orbital plane
View from above satellite
View from above satellite

Ground track
Ground track

The orbit data is extracted from the following two-line orbital elements,

1 15945U 85069B   17204.83476173 +.00000087 +00000-0 +75511-5 0  9994
2 15945 082.5283 098.7070 0020303 157.0875 203.1251 14.83930825705386
Epoch (UTC): 23 July 2017 20:02:03
Eccentricity: 0.0020303
inclination: 82.5283°
perigee height: 603 km
apogee height: 631 km
right ascension of ascending node: 98.7070°
argument of perigee: 157.0875°
revolutions per day: 14.83930825
mean anomaly at epoch: 203.1251°
orbit number at epoch: 70538

The dashed part of the orbit path shows where the satellite is in the earth's shadow,  

DLR